Wind_Speed
115 114 116 120 120 117 114 114 116 113 117 106 114 100 96 98 96 93 89 88 89 84 77 74 70 75 83 85 82 73 60 67 56 56 42 52 65 72 73 66 86 93 88 90
106 108 111 112 109 105 106 107 106 102 101 103 101 101 95 94 94 93 91 91 93 85 76 73 72 75 71 69 63 67 69 68 57 49 49 54 49 61 67 73 79 79 86 83
108 110 113 113 105 110 107 105 105 105 104 102 101 100 98 97 98 95 93 92 90 87 81 75 67 61 58 58 65 68 60 61 59 53 51 54 61 70 72 84 81 86 89 83
98 102 105 107 106 106 107 106 106 104 101 97 93 93 95 94 90 85 81 79 80 84 81 74 70 60 63 67 71 74 69 65 71 64 62 61 63 79 78 82 76 84 84 94
91 92 93 93 93 93 95 95 96 94 93 89 85 82 82 86 82 79 77 73 70 72 75 74 70 66 66 72 77 81 85 80 75 75 78 83 75 72 78 84 87 90 88 83
82 86 87 84 84 84 82 81 85 84 83 82 80 73 76 82 75 71 69 70 72 71 72 73 79 76 78 87 92 92 89 79 82 82 88 84 77 81 82 83 82 95 100 98
75 77 78 78 76 73 72 73 75 75 76 74 69 67 64 70 71 70 67 65 66 69 73 75 80 79 91 100 96 97 89 94 95 84 92 90 88 90 83 87 98 95 101 105
70 72 74 73 71 67 67 68 66 68 70 69 63 61 58 62 63 64 63 63 62 64 67 72 75 83 98 103 106 104 102 98 98 102 92 93 100 98 93 100 99 91 91 92
65 68 68 67 66 65 64 60 58 59 62 61 58 55 53 54 54 59 58 61 61 61 63 65 68 72 85 99 112 107 108 108 112 109 109 109 107 97 97 109 102 100 106 110
59 61 61 61 62 62 58 56 54 51 51 53 52 52 50 49 50 50 53 57 59 57 59 61 61 67 74 79 90 99 108 106 96 105 113 114 108 105 102 108 117 108 103 105
51 53 53 54 55 54 52 47 44 44 43 46 47 46 47 52 52 51 52 55 54 53 56 57 60 64 69 74 76 78 84 88 88 86 84 94 115 112 112 116 117 116 118 116
46 46 47 48 43 42 41 41 38 38 40 40 41 42 44 48 51 51 52 54 54 51 48 49 54 56 59 62 65 67 72 83 79 77 76 81 100 109 117 119 123 121 124 123
41 39 38 40 37 33 36 36 33 38 35 38 38 41 42 46 49 50 54 57 55 52 50 50 50 51 52 54 57 58 64 66 64 70 74 78 82 86 88 89 94 90 94 103
35 35 34 33 33 30 31 32 35 33 32 35 38 41 43 45 48 50 56 58 54 47 47 47 41 43 46 49 55 53 54 53 54 58 64 69 74 78 79 82 81 84 88 93
29 30 30 28 27 27 28 31 32 29 31 34 37 39 42 44 47 52 53 53 54 51 48 44 44 43 43 47 47 46 46 50 53 57 62 65 70 72 73 73 74 75 78 80
24 26 28 28 24 26 28 30 29 29 30 36 37 38 43 46 53 53 53 54 54 53 50 46 44 44 45 47 48 50 51 52 54 56 57 60 63 66 66 68 69 69 70 73
21 23 24 23 22 24 27 27 28 28 31 34 34 39 47 50 50 51 48 51 51 52 52 50 48 47 47 48 50 52 53 54 56 60 61 62 62 62 63 63 65 67 67 68
19 19 19 20 21 23 26 27 27 27 31 33 34 40 43 46 45 41 42 44 47 52 51 49 49 49 50 52 55 56 57 61 63 64 65 64 62 62 62 63 66 65 64 65
16 16 16 18 19 21 24 25 27 27 30 31 35 39 39 37 42 40 43 45 41 42 45 46 46 46 49 52 55 58 61 60 61 61 61 61 61 61 62 64 65 62 63 62
16 15 14 15 16 18 21 23 25 26 28 31 34 37 36 36 37 36 34 33 35 37 41 43 44 45 47 48 50 51 53 56 57 57 57 59 59 59 60 62 62 60 58 56
17 17 16 16 16 16 19 21 22 25 28 31 33 35 35 34 36 35 33 32 31 31 37 43 47 48 49 49 51 52 54 55 55 55 56 58 60 59 58 56 56 56 56 56
18 18 17 16 17 17 17 20 21 24 28 32 34 36 36 35 36 36 36 36 38 39 40 41 43 48 53 54 54 54 55 54 54 55 56 56 55 55 54 54 54 53 51 51
18 18 18 18 16 17 18 19 22 24 27 30 31 35 38 37 38 39 38 38 40 43 44 44 45 47 48 49 47 46 46 47 48 49 50 51 50 49 48 48 48 45 44 43
17 17 18 18 18 18 18 20 22 24 27 29 30 32 34 37 38 35 35 36 36 39 43 45 45 46 46 46 45 46 45 46 47 46 45 45 45 45 44 43 42 40 37 36
18 17 18 18 18 19 20 20 21 24 27 29 30 32 31 30 34 34 34 36 35 38 42 43 45 46 46 44 44 45 46 45 42 40 39 39 39 39 38 36 34 31 28 27
20 19 19 19 18 19 20 20 22 22 24 27 29 31 31 29 28 30 34 36 35 35 38 39 40 40 39 40 41 41 39 36 35 33 32 31 29 29 28 28 28 27 23 24
24 23 21 20 19 19 20 21 21 23 24 25 27 28 29 29 29 30 31 31 32 32 32 33 34 36 37 36 35 34 32 29 26 25 23 21 20 20 22 22 20 19 17 18
Wind_Direction
257 259 261 263 265 265 266 267 267 267 265 266 267 267 266 266 266 265 266 266 264 264 263 259 251 251 248 250 251 248 238 242 245 246 258 261 250 242 250 250 252 254 255 258
255 256 257 258 259 262 262 263 264 263 264 262 262 263 265 264 263 263 264 265 269 265 261 255 249 251 250 250 231 233 236 236 237 239 257 259 258 252 251 247 253 254 254 258
256 257 258 260 261 261 262 263 264 264 264 264 266 267 266 265 264 263 263 263 261 259 257 255 252 250 227 237 232 230 230 233 230 229 254 247 237 242 243 251 255 258 259 261
259 260 261 262 263 264 264 265 265 266 265 265 264 265 265 263 261 260 258 258 254 251 248 248 247 235 230 229 234 233 233 238 221 221 224 228 247 248 246 248 249 255 263 263
261 261 262 262 263 263 264 264 264 265 265 265 263 261 262 259 259 258 255 252 251 248 245 243 240 228 230 232 235 235 238 244 224 225 222 227 230 241 247 253 254 256 263 260
262 263 263 264 264 264 264 264 264 265 264 264 263 260 258 258 255 254 254 252 247 247 243 242 242 236 230 227 230 242 241 241 222 227 226 232 237 239 248 243 252 255 255 258
262 263 264 264 263 264 264 263 262 262 262 262 260 258 253 256 255 251 250 247 247 244 243 240 237 232 224 228 228 242 240 241 242 242 232 231 235 240 246 249 250 253 256 258
261 262 263 265 266 263 261 259 257 257 258 259 259 256 252 250 250 248 247 245 244 243 238 235 231 227 226 225 231 232 236 237 241 248 239 248 249 240 247 249 252 247 255 262
259 261 264 265 265 265 265 264 261 258 259 260 262 260 255 250 245 245 245 245 244 241 239 234 232 233 231 235 234 235 238 238 241 245 249 251 241 243 245 243 247 248 258 259
260 260 261 263 264 265 266 265 264 260 258 258 254 251 246 243 240 239 239 241 243 243 242 241 240 244 242 236 237 237 238 242 243 247 250 246 238 238 241 244 246 248 255 258
259 260 261 260 260 263 265 266 265 261 256 252 250 248 242 239 238 236 236 237 238 237 236 237 237 236 239 240 238 238 240 243 242 246 247 244 234 236 238 241 243 248 253 251
263 262 262 264 267 267 266 262 258 256 252 249 246 242 239 236 237 235 236 236 238 236 238 240 242 239 239 240 242 240 240 242 243 245 247 242 238 241 244 243 246 253 253 257
263 264 265 264 262 260 259 261 255 250 248 245 239 235 234 234 234 234 236 238 237 236 234 233 233 235 238 240 243 243 245 249 247 245 247 248 249 250 250 251 252 258 255 256
259 261 260 260 262 257 249 247 244 242 239 238 236 231 229 230 232 231 233 236 240 236 236 236 236 236 237 240 241 242 248 254 253 249 251 253 254 256 257 258 260 260 261 259
257 260 260 256 253 251 246 245 244 236 233 235 233 232 227 227 230 232 233 234 238 238 235 234 235 238 239 242 246 247 244 245 246 247 247 249 253 256 259 261 262 263 263 263
253 250 252 255 252 249 243 242 241 235 227 232 231 228 225 222 227 234 233 235 235 240 241 238 237 241 243 244 247 248 247 246 248 251 252 253 255 258 259 260 262 265 267 268
253 254 254 251 246 242 247 244 239 234 229 228 230 226 225 227 232 235 239 236 239 236 239 242 241 240 242 245 246 249 250 253 256 257 259 261 261 261 263 265 267 268 269 270
259 255 253 251 244 238 240 239 234 231 232 230 227 228 234 232 237 241 242 244 242 242 244 243 243 243 244 244 245 246 250 253 256 257 258 260 262 264 268 271 271 272 273 274
269 266 260 254 249 243 241 238 234 227 229 231 230 233 237 239 239 240 239 244 249 248 247 247 248 246 245 245 245 246 249 251 253 255 258 263 267 270 271 271 274 276 276 275
273 268 263 258 246 238 240 241 237 229 227 231 233 236 238 240 243 242 245 244 243 240 241 242 244 244 245 246 247 248 251 254 256 259 263 267 273 275 272 271 274 275 276 279
285 281 267 262 256 241 237 235 235 234 225 227 234 238 241 240 240 245 243 243 242 238 236 238 245 249 252 253 254 255 257 260 263 267 271 271 268 269 271 274 276 279 282 283
288 288 281 266 259 255 241 238 233 230 228 226 227 233 238 242 243 242 240 241 243 243 241 240 238 239 244 249 252 254 258 263 264 263 262 265 269 273 276 278 280 279 277 278
284 282 279 274 269 258 250 241 238 232 230 233 231 228 235 234 237 240 240 237 235 240 243 244 244 246 248 251 255 259 260 259 260 264 266 269 273 277 279 277 277 276 275 277
283 275 272 270 269 263 255 247 241 237 232 234 236 237 235 237 241 238 238 239 238 238 242 245 247 247 249 251 254 255 259 263 264 268 275 279 279 277 276 275 275 277 274 273
290 284 276 267 262 259 255 251 247 243 240 234 233 240 240 235 236 239 240 240 236 232 235 238 241 244 247 252 253 255 257 262 269 273 276 276 277 278 278 276 272 271 269 265
287 287 281 275 267 258 253 252 250 246 244 245 242 240 240 238 234 231 232 234 234 231 230 234 238 242 243 246 249 254 259 262 264 268 270 271 272 272 275 272 265 261 259 256
278 276 275 272 268 262 257 252 249 248 246 245 245 246 248 245 239 234 234 236 238 239 238 237 237 238 242 246 249 251 253 253 256 261 266 274 277 283 282 273 264 257 253 246
Height
10234 10235 10238 10234 10242 10246 10252 10256 10254 10264 10255 10294 10267 10276 10284 10285 10290 10295 10302 10307 10314 10324 10332 10337 10343 10346 10347 10355 10367 10375 10382 10391 10400 10405 10410 10418 10423 10430 10430 10430 10427 10429 10428 10425
10206 10207 10204 10203 10213 10225 10229 10228 10220 10227 10235 10240 10249 10250 10259 10262 10263 10267 10274 10280 10283 10291 10302 10310 10316 10322 10328 10332 10342 10356 10364 10375 10381 10390 10393 10401 10406 10408 10407 10411 10411 10410 10410 10408
10177 10177 10173 10173 10196 10188 10197 10201 10200 10199 10206 10216 10219 10220 10226 10230 10230 10238 10246 10249 10259 10262 10274 10283 10293 10299 10307 10317 10326 10335 10346 10358 10360 10370 10380 10384 10390 10385 10388 10389 10391 10392 10390 10387
10146 10146 10146 10152 10161 10164 10166 10169 10168 10170 10175 10182 10192 10197 10197 10195 10197 10205 10216 10220 10227 10233 10245 10256 10269 10279 10288 10296 10309 10317 10325 10335 10341 10345 10348 10352 10364 10368 10369 10369 10370 10367 10368 10367
10117 10122 10123 10128 10133 10136 10136 10140 10139 10143 10147 10153 10159 10167 10168 10159 10169 10179 10184 10192 10200 10205 10216 10229 10241 10252 10267 10278 10289 10295 10303 10313 10316 10320 10324 10329 10334 10341 10348 10348 10348 10349 10349 10348
10095 10093 10096 10106 10107 10108 10111 10117 10113 10117 10119 10123 10128 10140 10143 10131 10146 10153 10158 10167 10174 10180 10189 10203 10216 10226 10243 10251 10260 10270 10280 10291 10295 10297 10302 10306 10310 10317 10323 10327 10327 10327 10326 10324
10072 10071 10073 10076 10081 10086 10090 10090 10088 10090 10091 10096 10104 10110 10119 10112 10119 10129 10137 10145 10151 10158 10168 10176 10188 10201 10214 10217 10233 10245 10256 10265 10272 10278 10280 10281 10287 10294 10301 10304 10306 10307 10304 10305
10051 10050 10050 10052 10055 10062 10062 10063 10069 10070 10071 10074 10081 10087 10096 10094 10099 10107 10116 10123 10131 10139 10147 10155 10163 10175 10187 10192 10206 10216 10231 10239 10248 10253 10262 10263 10265 10271 10273 10280 10283 10283 10283 10284
10034 10031 10031 10034 10035 10035 10038 10043 10047 10052 10053 10059 10066 10071 10077 10080 10085 10089 10098 10101 10108 10118 10126 10133 10144 10153 10163 10171 10180 10190 10201 10210 10218 10223 10230 10237 10238 10243 10248 10254 10260 10258 10260 10261
10015 10014 10017 10017 10016 10016 10019 10023 10026 10032 10037 10040 10044 10049 10056 10062 10066 10074 10080 10084 10089 10100 10106 10112 10121 10130 10139 10143 10152 10163 10176 10183 10191 10198 10200 10205 10214 10218 10222 10226 10231 10236 10238 10241
9997 9997 10000 9999 9999 10001 10004 10009 10012 10014 10019 10020 10025 10030 10036 10041 10048 10056 10064 10068 10073 10081 10089 10096 10105 10115 10118 10123 10132 10142 10151 10156 10162 10166 10171 10175 10185 10191 10195 10198 10202 10207 10210 10213
9981 9983 9984 9984 9989 9991 9993 9993 9997 9999 10000 10005 10009 10014 10019 10024 10031 10040 10047 10051 10057 10066 10075 10082 10086 10096 10103 10108 10112 10119 10125 10128 10143 10152 10154 10157 10164 10168 10171 10177 10181 10184 10187 10186
9968 9971 9973 9972 9974 9979 9979 9980 9983 9984 9990 9991 9996 9999 10005 10009 10015 10024 10031 10036 10046 10056 10064 10070 10076 10083 10088 10094 10097 10104 10108 10114 10124 10129 10132 10138 10142 10145 10149 10153 10157 10157 10159 10158
9959 9959 9961 9962 9963 9966 9966 9967 9967 9973 9978 9980 9982 9987 9992 9997 10001 10008 10014 10022 10031 10045 10052 10058 10066 10071 10075 10080 10083 10091 10095 10099 10105 10110 10113 10115 10117 10119 10124 10126 10128 10129 10129 10130
9949 9949 9949 9951 9952 9953 9954 9953 9956 9962 9966 9969 9973 9978 9983 9988 9991 9994 10002 10012 10019 10029 10037 10045 10051 10056 10062 10065 10070 10075 10081 10085 10088 10091 10094 10098 10099 10100 10101 10102 10105 10106 10106 10106
9941 9940 9938 9940 9943 9943 9943 9944 9948 9953 9958 9959 9964 9971 9973 9977 9975 9981 9992 9999 10008 10014 10022 10032 10039 10044 10050 10054 10058 10061 10065 10070 10073 10076 10078 10081 10081 10082 10083 10083 10083 10084 10083 10083
9933 9932 9932 9934 9935 9935 9935 9937 9940 9945 9949 9951 9957 9962 9962 9964 9969 9974 9980 9989 9996 10004 10011 10017 10025 10031 10037 10041 10044 10047 10050 10052 10055 10058 10059 10061 10062 10062 10062 10062 10062 10062 10062 10062
9925 9925 9925 9926 9927 9927 9927 9929 9932 9937 9939 9942 9948 9951 9953 9957 9961 9966 9972 9979 9987 9993 9999 10006 10014 10020 10024 10028 10030 10033 10035 10037 10040 10042 10043 10043 10043 10043 10043 10042 10041 10041 10041 10040
9918 9918 9918 9918 9919 9921 9921 9923 9926 9930 9932 9934 9938 9940 9945 9950 9954 9959 9966 9970 9976 9984 9990 9996 10001 10007 10011 10014 10017 10020 10021 10024 10024 10025 10026 10025 10025 10025 10024 10023 10021 10022 10021 10019
9911 9911 9912 9912 9913 9914 9915 9917 9919 9923 9927 9927 9930 9932 9937 9942 9946 9951 9957 9963 9969 9974 9979 9984 9988 9992 9995 9999 10001 10004 10005 10005 10006 10007 10009 10009 10009 10008 10007 10005 10004 10003 10003 10001
9906 9907 9907 9907 9907 9908 9909 9910 9913 9916 9919 9921 9922 9925 9929 9934 9938 9942 9947 9953 9958 9963 9969 9973 9975 9978 9981 9984 9986 9987 9989 9991 9992 9993 9994 9994 9993 9992 9991 9989 9988 9985 9983 9982
9901 9901 9901 9902 9901 9902 9903 9904 9906 9907 9910 9913 9916 9918 9920 9925 9929 9933 9938 9942 9947 9952 9955 9959 9964 9966 9968 9970 9973 9974 9977 9979 9980 9980 9980 9978 9977 9975 9973 9973 9972 9971 9969 9966
9896 9896 9895 9895 9896 9896 9897 9898 9899 9900 9902 9904 9908 9912 9913 9918 9921 9924 9928 9933 9938 9940 9943 9947 9950 9953 9955 9958 9961 9963 9964 9965 9966 9966 9964 9962 9961 9959 9959 9958 9956 9955 9953 9952
9892 9891 9890 9890 9890 9891 9891 9892 9893 9894 9895 9896 9899 9902 9905 9907 9909 9914 9919 9923 9928 9932 9933 9935 9938 9940 9943 9945 9948 9949 9950 9951 9951 9950 9949 9948 9946 9945 9943 9942 9942 9941 9940 9940
9886 9885 9885 9885 9884 9884 9884 9885 9887 9887 9888 9891 9892 9892 9895 9900 9903 9905 9908 9911 9915 9919 9922 9924 9926 9928 9930 9933 9935 9936 9937 9938 9939 9938 9936 9935 9933 9932 9930 9929 9929 9930 9929 9929
9879 9879 9879 9879 9879 9878 9878 9878 9879 9881 9882 9883 9885 9886 9888 9890 9893 9897 9899 9901 9904 9907 9910 9913 9915 9917 9919 9921 9923 9924 9926 9927 9927 9926 9926 9925 9923 9922 9920 9919 9919 9919 9919 9920
9872 9871 9871 9871 9871 9871 9872 9872 9872 9872 9874 9875 9876 9877 9879 9881 9883 9885 9887 9890 9892 9895 9898 9900 9903 9905 9907 9909 9912 9914 9916 9917 9917 9918 9916 9915 9914 9912 9912 9911 9911 9911 9912 9914